カタログに戻る

STARLINK-36036

運用中通信VLEO
NORAD 66608·PAYLOAD·🇺🇸 United States

打ち上げ Nov 22, 2025 から Cape Canaveral Space Force Station

Loading…

次のパス (今後24時間)

TLE

最新Source: CelesTrak SupGP

元期: Sep 15, 2026, 02:28 UTC

1 66608C 25270W   26258.10326389 -.00011172  00000+0 -40468-3 0  2583
2 66608  43.0009  66.2346 0001560 273.6193 202.4040 15.27581712    16

AllMySatでSTARLINK-36036をリアルタイム追跡

Download on the App Store